Location: Antioch
(38.0049°N, 121.8058°W)
Time: 07:21:59
(UTC+00:00)

MOS 1 Rocket - Pass Details

Date: 11 February 2026
Orbit: 609 x 814 km, 97.4° (Epoch: 9 March)

Event Time Altitude Azimuth Distance (km) Brightness Sun altitude
Rises 14:00:43 0° 17° (NNE) 2,894 6.6 -12.5°
Reaches altitude 10° 14:02:55 10° 23° (NNE) 1,999 5.9 -12.1°
Maximum altitude 14:07:09 51° 99° (E) 805 4.1 -11.3°
Drops below altitude 10° 14:11:32 10° 176° (S) 2,074 5.9 -10.4°
Sets 14:13:51 0° 181° (S) 3,014 6.7 -10.0°
